Time,TemperatureF,DewpointF,PressureIn,WindDirection,WindDirectionDegrees,WindSpeedMPH,WindSpeedGustMPH,Humidity,HourlyPrecipIn,Conditions,Clouds,dailyrainin,SoftwareType,DateUTC
2013-06-12 00:10:00,68.3,67.0,29.86,SW,227,0.0,0.0,94,0.00,,,0.01,weatherlink.com 1.10,2013-06-12 04:10:00,
2013-06-12 00:25:00,68.1,67.0,29.87,SW,227,0.0,0.0,95,0.00,,,0.01,weatherlink.com 1.10,2013-06-12 04:25:00,
2013-06-12 00:42:00,67.8,66.0,29.85,SW,227,0.0,0.0,94,0.00,,,0.00,weatherlink.com 1.10,2013-06-12 04:42:00,
2013-06-12 00:57:00,67.5,66.0,29.85,SW,227,0.0,0.0,95,0.00,,,0.00,weatherlink.com 1.10,2013-06-12 04:57:00,
2013-06-12 01:12:00,67.6,67.0,29.86,SW,227,0.0,0.0,96,0.00,,,0.00,weatherlink.com 1.10,2013-06-12 05:12:00,
2013-06-12 01:27:00,67.4,66.0,29.86,SW,227,0.0,0.0,95,0.00,,,0.00,weatherlink.com 1.10,2013-06-12 05:27:00,
2013-06-12 01:42:00,67.0,66.0,29.85,SW,227,0.0,0.0,95,0.00,,,0.00,weatherlink.com 1.10,2013-06-12 05:42:00,
2013-06-12 01:57:00,67.0,66.0,29.85,SW,227,0.0,0.0,96,0.00,,,0.00,weatherlink.com 1.10,2013-06-12 05:57:00,
2013-06-12 02:12:00,66.9,66.0,29.84,SW,227,0.0,0.0,96,0.00,,,0.00,weatherlink.com 1.10,2013-06-12 06:12:00,
2013-06-12 02:27:00,66.8,66.0,29.84,SW,227,0.0,0.0,96,0.00,,,0.00,weatherlink.com 1.10,2013-06-12 06:27:00,
2013-06-12 02:43:00,66.9,66.0,29.84,SW,227,0.0,0.0,97,0.00,,,0.00,weatherlink.com 1.10,2013-06-12 06:43:00,
2013-06-12 02:58:00,66.7,66.0,29.83,SW,227,0.0,0.0,96,0.00,,,0.00,weatherlink.com 1.10,2013-06-12 06:58:00,
2013-06-12 03:13:00,66.8,66.0,29.84,SW,227,0.0,0.0,97,0.00,,,0.00,weatherlink.com 1.10,2013-06-12 07:13:00,
2013-06-12 03:29:00,67.3,67.0,29.84,SW,227,0.0,0.0,98,0.00,,,0.00,weatherlink.com 1.10,2013-06-12 07:29:00,
2013-06-12 03:44:00,67.5,67.0,29.84,SW,227,0.0,0.0,97,0.00,,,0.00,weatherlink.com 1.10,2013-06-12 07:44:00,
2013-06-12 04:00:00,67.8,67.0,29.84,SW,227,0.0,0.0,98,0.00,,,0.00,weatherlink.com 1.10,2013-06-12 08:00:00,
2013-06-12 04:14:00,67.9,67.0,29.84,SW,227,0.0,0.0,98,0.00,,,0.00,weatherlink.com 1.10,2013-06-12 08:14:00,
2013-06-12 04:30:00,68.1,68.0,29.85,SW,227,0.0,0.0,98,0.00,,,0.00,weatherlink.com 1.10,2013-06-12 08:30:00,
2013-06-12 04:45:00,68.2,67.0,29.85,SW,227,0.0,0.0,97,0.00,,,0.00,weatherlink.com 1.10,2013-06-12 08:45:00,
2013-06-12 05:00:00,68.3,68.0,29.86,SW,227,0.0,0.0,97,0.00,,,0.00,weatherlink.com 1.10,2013-06-12 09:00:00,
2013-06-12 05:15:00,68.1,67.0,29.86,SW,227,0.0,0.0,97,0.00,,,0.00,weatherlink.com 1.10,2013-06-12 09:15:00,
2013-06-12 05:32:00,67.8,67.0,29.86,SW,227,0.0,0.0,97,0.00,,,0.00,weatherlink.com 1.10,2013-06-12 09:32:00,
2013-06-12 05:47:00,67.4,67.0,29.86,SW,227,0.0,0.0,97,0.00,,,0.00,weatherlink.com 1.10,2013-06-12 09:47:00,
2013-06-12 06:02:00,67.3,67.0,29.86,SW,227,0.0,0.0,97,0.00,,,0.00,weatherlink.com 1.10,2013-06-12 10:02:00,
2013-06-12 06:16:00,67.0,66.0,29.86,SW,227,0.0,0.0,97,0.00,,,0.00,weatherlink.com 1.10,2013-06-12 10:16:00,
2013-06-12 06:32:00,66.7,66.0,29.87,SW,227,0.0,0.0,97,0.00,,,0.00,weatherlink.com 1.10,2013-06-12 10:32:00,
2013-06-12 06:47:00,66.7,66.0,29.87,East,92,0.0,0.0,98,0.00,,,0.00,weatherlink.com 1.10,2013-06-12 10:47:00,
2013-06-12 07:02:00,66.8,66.0,29.88,East,92,0.0,0.0,98,0.00,,,0.00,weatherlink.com 1.10,2013-06-12 11:02:00,
2013-06-12 07:18:00,66.9,66.0,29.88,East,92,0.0,0.0,98,0.00,,,0.00,weatherlink.com 1.10,2013-06-12 11:18:00,
2013-06-12 07:33:00,67.7,67.0,29.87,East,92,0.0,0.0,99,0.00,,,0.00,weatherlink.com 1.10,2013-06-12 11:33:00,
2013-06-12 07:48:00,69.0,69.0,29.86,SSE,163,3.0,4.0,99,0.00,,,0.00,weatherlink.com 1.10,2013-06-12 11:48:00,
2013-06-12 08:03:00,70.5,70.0,29.85,SW,225,3.0,4.0,99,0.00,,,0.00,weatherlink.com 1.10,2013-06-12 12:03:00,
2013-06-12 08:19:00,71.3,70.0,29.85,SSW,211,1.0,6.0,97,0.00,,,0.00,weatherlink.com 1.10,2013-06-12 12:19:00,
2013-06-12 08:34:00,72.7,72.0,29.86,SW,217,3.0,5.0,96,0.00,,,0.00,weatherlink.com 1.10,2013-06-12 12:34:00,
2013-06-12 08:49:00,74.0,72.0,29.88,West,277,3.0,5.0,93,0.00,,,0.00,weatherlink.com 1.10,2013-06-12 12:49:00,
2013-06-12 09:04:00,75.4,72.0,29.88,West,277,0.0,4.0,89,0.00,,,0.00,weatherlink.com 1.10,2013-06-12 13:04:00,
2013-06-12 09:19:00,76.4,72.0,29.88,West,277,1.0,3.0,87,0.00,,,0.00,weatherlink.com 1.10,2013-06-12 13:19:00,
2013-06-12 09:35:00,77.2,73.0,29.88,West,277,1.0,4.0,87,0.00,,,0.00,weatherlink.com 1.10,2013-06-12 13:35:00,
2013-06-12 09:50:00,77.9,73.0,29.88,West,275,3.0,5.0,85,0.00,,,0.00,weatherlink.com 1.10,2013-06-12 13:50:00,
2013-06-12 10:05:00,78.2,73.0,29.87,West,273,0.0,6.0,83,0.00,,,0.00,weatherlink.com 1.10,2013-06-12 14:05:00,
2013-06-12 10:22:00,78.5,73.0,29.89,WNW,293,3.0,5.0,84,0.00,,,0.00,weatherlink.com 1.10,2013-06-12 14:22:00,
2013-06-12 10:38:00,78.6,73.0,29.88,WNW,293,2.0,3.0,83,0.00,,,0.00,weatherlink.com 1.10,2013-06-12 14:38:00,
2013-06-12 10:52:00,79.3,74.0,29.88,NW,304,1.0,5.0,83,0.00,,,0.00,weatherlink.com 1.10,2013-06-12 14:52:00,
2013-06-12 11:07:00,79.8,74.0,29.88,NE,39,2.0,5.0,82,0.00,,,0.00,weatherlink.com 1.10,2013-06-12 15:07:00,
2013-06-12 11:22:00,80.0,74.0,29.88,NE,42,0.0,4.0,81,0.00,,,0.00,weatherlink.com 1.10,2013-06-12 15:22:00,
2013-06-12 11:37:00,79.7,74.0,29.88,NE,50,2.0,3.0,82,0.00,,,0.00,weatherlink.com 1.10,2013-06-12 15:37:00,
2013-06-12 11:53:00,80.6,75.0,29.87,SSE,161,0.0,5.0,82,0.00,,,0.00,weatherlink.com 1.10,2013-06-12 15:53:00,
2013-06-12 12:07:00,80.7,75.0,29.86,South,180,5.0,7.0,83,0.00,,,0.00,weatherlink.com 1.10,2013-06-12 16:07:00,
2013-06-12 12:23:00,80.3,75.0,29.85,South,190,7.0,8.0,84,0.00,,,0.00,weatherlink.com 1.10,2013-06-12 16:23:00,
2013-06-12 12:39:00,81.3,76.0,29.85,SSW,194,4.0,7.0,83,0.00,,,0.00,weatherlink.com 1.10,2013-06-12 16:39:00,
2013-06-12 12:53:00,82.1,75.0,29.84,SSW,194,4.0,10.0,79,0.00,,,0.00,weatherlink.com 1.10,2013-06-12 16:53:00,
2013-06-12 13:08:00,82.8,76.0,29.83,SSW,201,6.0,11.0,79,0.00,,,0.00,weatherlink.com 1.10,2013-06-12 17:08:00,
2013-06-12 13:24:00,83.1,76.0,29.83,SW,215,4.0,8.0,79,0.00,,,0.00,weatherlink.com 1.10,2013-06-12 17:24:00,
2013-06-12 13:40:00,83.3,77.0,29.81,South,187,5.0,10.0,80,0.00,,,0.00,weatherlink.com 1.10,2013-06-12 17:40:00,
2013-06-12 13:55:00,83.3,76.0,29.79,SSW,213,5.0,7.0,78,0.00,,,0.00,weatherlink.com 1.10,2013-06-12 17:55:00,
2013-06-12 14:10:00,83.1,75.0,29.78,SSW,205,4.0,9.0,76,0.00,,,0.00,weatherlink.com 1.10,2013-06-12 18:10:00,
2013-06-12 14:24:00,83.0,75.0,29.77,SW,216,3.0,11.0,76,0.00,,,0.00,weatherlink.com 1.10,2013-06-12 18:24:00,
2013-06-12 14:41:00,83.8,76.0,29.78,South,190,4.0,9.0,76,0.00,,,0.00,weatherlink.com 1.10,2013-06-12 18:41:00,
2013-06-12 14:55:00,83.9,75.0,29.76,SSW,209,7.0,10.0,75,0.00,,,0.00,weatherlink.com 1.10,2013-06-12 18:55:00,
2013-06-12 15:10:00,84.1,76.0,29.75,SSW,204,5.0,10.0,76,0.00,,,0.00,weatherlink.com 1.10,2013-06-12 19:10:00,
2013-06-12 15:27:00,84.5,75.0,29.74,SSW,198,5.0,12.0,73,0.00,,,0.00,weatherlink.com 1.10,2013-06-12 19:27:00,
2013-06-12 15:42:00,85.7,75.0,29.73,SSW,212,8.0,17.0,70,0.00,,,0.00,weatherlink.com 1.10,2013-06-12 19:42:00,
2013-06-12 15:57:00,86.1,75.0,29.75,WSW,253,11.0,14.0,70,0.00,,,0.00,weatherlink.com 1.10,2013-06-12 19:57:00,
2013-06-12 16:12:00,86.9,76.0,29.73,SW,215,14.0,15.0,71,0.00,,,0.00,weatherlink.com 1.10,2013-06-12 20:12:00,
2013-06-12 16:27:00,86.6,75.0,29.72,SSW,197,4.0,17.0,69,0.00,,,0.00,weatherlink.com 1.10,2013-06-12 20:27:00,
2013-06-12 16:43:00,88.0,75.0,29.73,SW,231,11.0,20.0,65,0.00,,,0.00,weatherlink.com 1.10,2013-06-12 20:43:00,
2013-06-12 16:58:00,87.9,75.0,29.73,SW,225,9.0,18.0,65,0.00,,,0.00,weatherlink.com 1.10,2013-06-12 20:58:00,
2013-06-12 17:14:00,88.6,75.0,29.75,West,267,6.0,18.0,65,0.00,,,0.00,weatherlink.com 1.10,2013-06-12 21:14:00,
2013-06-12 17:28:00,88.4,76.0,29.74,WSW,249,7.0,14.0,66,0.00,,,0.00,weatherlink.com 1.10,2013-06-12 21:28:00,
2013-06-12 17:43:00,89.0,75.0,29.74,WNW,283,6.0,17.0,63,0.00,,,0.00,weatherlink.com 1.10,2013-06-12 21:43:00,
2013-06-12 18:00:00,88.5,75.0,29.75,West,271,10.0,17.0,64,0.00,,,0.00,weatherlink.com 1.10,2013-06-12 22:00:00,
2013-06-12 18:14:00,88.3,75.0,29.74,West,277,11.0,16.0,64,0.00,,,0.00,weatherlink.com 1.10,2013-06-12 22:14:00,
2013-06-12 18:29:00,88.1,76.0,29.72,SW,222,6.0,15.0,67,0.00,,,0.00,weatherlink.com 1.10,2013-06-12 22:29:00,
2013-06-12 18:44:00,87.1,75.0,29.71,West,273,7.0,16.0,67,0.00,,,0.00,weatherlink.com 1.10,2013-06-12 22:44:00,
2013-06-12 19:00:00,87.0,76.0,29.71,West,261,7.0,13.0,69,0.00,,,0.00,weatherlink.com 1.10,2013-06-12 23:00:00,
2013-06-12 19:15:00,87.2,75.0,29.71,SSW,211,5.0,13.0,67,0.00,,,0.00,weatherlink.com 1.10,2013-06-12 23:15:00,
2013-06-12 19:30:00,86.8,76.0,29.71,WSW,248,2.0,14.0,69,0.00,,,0.00,weatherlink.com 1.10,2013-06-12 23:30:00,
2013-06-12 19:45:00,85.1,75.0,29.70,WSW,246,7.0,13.0,71,0.00,,,0.00,weatherlink.com 1.10,2013-06-12 23:45:00,
2013-06-12 20:02:00,84.1,75.0,29.69,SSW,207,2.0,8.0,73,0.00,,,0.00,weatherlink.com 1.10,2013-06-13 00:02:00,
2013-06-12 20:17:00,83.5,75.0,29.69,SSW,204,3.0,9.0,75,0.00,,,0.00,weatherlink.com 1.10,2013-06-13 00:17:00,
2013-06-12 20:32:00,83.0,75.0,29.68,SSW,206,3.0,6.0,77,0.00,,,0.00,weatherlink.com 1.10,2013-06-13 00:32:00,
2013-06-12 20:47:00,82.6,74.0,29.66,SSW,196,3.0,6.0,76,0.00,,,0.00,weatherlink.com 1.10,2013-06-13 00:47:00,
2013-06-12 21:02:00,82.3,74.0,29.66,SSW,195,3.0,4.0,77,0.00,,,0.00,weatherlink.com 1.10,2013-06-13 01:02:00,
2013-06-12 21:17:00,81.8,74.0,29.66,SSW,202,2.0,5.0,78,0.00,,,0.00,weatherlink.com 1.10,2013-06-13 01:17:00,
2013-06-12 21:32:00,81.4,74.0,29.64,SSW,194,1.0,4.0,79,0.00,,,0.00,weatherlink.com 1.10,2013-06-13 01:32:00,
2013-06-12 21:47:00,81.0,74.0,29.62,SSW,192,0.0,6.0,80,0.00,,,0.00,weatherlink.com 1.10,2013-06-13 01:47:00,
2013-06-12 22:03:00,80.9,75.0,29.62,South,186,0.0,6.0,81,0.00,,,0.00,weatherlink.com 1.10,2013-06-13 02:03:00,
2013-06-12 22:18:00,81.1,74.0,29.62,SSW,197,4.0,8.0,80,0.00,,,0.00,weatherlink.com 1.10,2013-06-13 02:18:00,
2013-06-12 22:33:00,81.3,74.0,29.62,SSW,194,4.0,7.0,79,0.00,,,0.00,weatherlink.com 1.10,2013-06-13 02:33:00,
2013-06-12 22:48:00,81.5,74.0,29.61,SSW,209,6.0,13.0,79,0.00,,,0.00,weatherlink.com 1.10,2013-06-13 02:48:00,
2013-06-12 23:04:00,82.0,75.0,29.63,WSW,240,0.0,11.0,78,0.00,,,0.00,weatherlink.com 1.10,2013-06-13 03:04:00,
2013-06-12 23:19:00,71.4,66.0,29.68,NNW,347,8.0,32.0,82,0.21,,,0.21,weatherlink.com 1.10,2013-06-13 03:19:00,
2013-06-12 23:30:00,67.7,65.0,29.71,NW,307,1.0,23.0,91,0.43,,,0.43,weatherlink.com 1.10,2013-06-13 03:30:00,
2013-06-12 23:46:00,66.8,65.0,29.69,North,360,3.0,7.0,94,0.67,,,0.67,weatherlink.com 1.10,2013-06-13 03:46:00,